Time,TemperatureF,DewpointF,PressureIn,WindDirection,WindDirectionDegrees,WindSpeedMPH,WindSpeedGustMPH,Humidity,HourlyPrecipIn,Conditions,Clouds,dailyrainin,SoftwareType,DateUTC
2015-07-02 00:04:00,80.6,59.1,30.08,SW,226,3.6,4.9,48,0.00,,---,-99.99,VWS V14.01,2015-07-02 05:04:00,
2015-07-02 00:09:00,80.2,58.8,30.08,SSW,205,2.7,6.3,48,0.00,,---,-99.99,VWS V14.01,2015-07-02 05:09:00,
2015-07-02 00:14:00,80.1,59.5,30.08,SSW,206,3.1,4.9,50,0.00,,---,-99.99,VWS V14.01,2015-07-02 05:14:00,
2015-07-02 00:19:00,79.7,59.2,30.08,SSW,198,0.0,3.1,50,0.00,,---,-99.99,VWS V14.01,2015-07-02 05:19:00,
2015-07-02 00:24:00,79.5,59.0,30.08,SW,217,6.3,6.3,50,0.00,,---,-99.99,VWS V14.01,2015-07-02 05:24:00,
2015-07-02 00:29:00,79.5,59.0,30.08,SSW,196,5.4,5.8,50,0.00,,---,-99.99,VWS V14.01,2015-07-02 05:29:00,
2015-07-02 00:34:00,79.7,59.2,30.08,SW,225,2.7,2.7,50,0.00,,---,-99.99,VWS V14.01,2015-07-02 05:34:00,
2015-07-02 00:44:00,79.7,58.3,30.08,SW,224,4.0,5.8,48,0.00,,---,-99.99,VWS V14.01,2015-07-02 05:44:00,
2015-07-02 00:49:00,80.1,58.6,30.08,SW,230,4.0,6.3,48,0.00,,---,-99.99,VWS V14.01,2015-07-02 05:49:00,
2015-07-02 00:54:00,80.2,58.8,30.08,WSW,237,5.4,5.4,48,0.00,,---,-99.99,VWS V14.01,2015-07-02 05:54:00,
2015-07-02 00:59:00,80.2,58.8,30.08,WSW,242,4.0,4.9,48,0.00,,---,-99.99,VWS V14.01,2015-07-02 05:59:00,
2015-07-02 01:04:00,80.1,58.6,30.08,SW,231,3.6,4.5,48,0.00,,---,-99.99,VWS V14.01,2015-07-02 06:04:00,
2015-07-02 01:09:00,79.7,58.3,30.08,WSW,240,3.1,3.6,48,0.00,,---,-99.99,VWS V14.01,2015-07-02 06:09:00,
2015-07-02 01:14:00,79.2,58.7,30.08,SW,230,6.3,6.3,50,0.00,,---,-99.99,VWS V14.01,2015-07-02 06:14:00,
2015-07-02 01:19:00,78.8,58.3,30.08,WSW,237,0.0,0.0,50,0.00,,---,-99.99,VWS V14.01,2015-07-02 06:19:00,
2015-07-02 01:24:00,78.4,58.8,30.08,WSW,239,0.0,0.0,51,0.00,,---,-99.99,VWS V14.01,2015-07-02 06:24:00,
2015-07-02 01:29:00,77.9,59.1,30.08,WSW,244,3.1,5.4,52,0.00,,---,-99.99,VWS V14.01,2015-07-02 06:29:00,
2015-07-02 01:34:00,77.7,59.0,30.08,SW,229,2.7,3.1,52,0.00,,---,-99.99,VWS V14.01,2015-07-02 06:34:00,
2015-07-02 01:39:00,77.7,59.0,30.08,SW,236,2.7,3.6,52,0.00,,---,-99.99,VWS V14.01,2015-07-02 06:39:00,
2015-07-02 01:44:00,77.9,59.1,30.08,WSW,240,3.1,4.0,52,0.00,,---,-99.99,VWS V14.01,2015-07-02 06:44:00,
2015-07-02 01:49:00,77.9,59.1,30.08,SW,230,0.0,5.8,52,0.00,,---,-99.99,VWS V14.01,2015-07-02 06:49:00,
2015-07-02 01:54:00,78.1,59.3,30.08,SW,229,5.8,5.8,52,0.00,,---,-99.99,VWS V14.01,2015-07-02 06:54:00,
2015-07-02 01:59:00,78.3,58.7,30.08,SW,227,5.8,5.8,51,0.00,,---,-99.99,VWS V14.01,2015-07-02 06:59:00,
2015-07-02 02:04:00,78.4,58.8,30.08,SW,227,5.4,5.4,51,0.00,,---,-99.99,VWS V14.01,2015-07-02 07:04:00,
2015-07-02 02:09:00,78.4,58.8,30.08,SW,233,4.9,6.7,51,0.00,,---,-99.99,VWS V14.01,2015-07-02 07:09:00,
2015-07-02 02:14:00,78.6,59.0,30.08,SSW,208,5.4,7.6,51,0.00,,---,-99.99,VWS V14.01,2015-07-02 07:14:00,
2015-07-02 02:19:00,78.8,59.2,30.08,West,263,6.3,6.3,51,0.00,,---,-99.99,VWS V14.01,2015-07-02 07:19:00,
2015-07-02 02:24:00,78.8,59.2,30.08,WSW,244,7.6,7.6,51,0.00,,---,-99.99,VWS V14.01,2015-07-02 07:24:00,
2015-07-02 02:29:00,78.4,59.6,30.08,SW,236,5.4,5.4,52,0.00,,---,-99.99,VWS V14.01,2015-07-02 07:29:00,
2015-07-02 02:34:00,78.3,59.5,30.08,WSW,242,6.3,6.3,52,0.00,,---,-99.99,VWS V14.01,2015-07-02 07:34:00,
2015-07-02 02:39:00,78.1,60.1,30.08,SW,235,3.6,3.6,54,0.00,,---,-99.99,VWS V14.01,2015-07-02 07:39:00,
2015-07-02 02:44:00,77.9,59.9,30.08,SW,234,3.1,5.8,54,0.00,,---,-99.99,VWS V14.01,2015-07-02 07:44:00,
2015-07-02 02:49:00,77.9,59.9,30.08,WSW,245,5.4,6.3,54,0.00,,---,-99.99,VWS V14.01,2015-07-02 07:49:00,
2015-07-02 02:54:00,77.7,60.5,30.08,WSW,243,5.4,6.3,56,0.00,,---,-99.99,VWS V14.01,2015-07-02 07:54:00,
2015-07-02 02:59:00,77.5,60.4,30.08,WSW,246,3.1,5.4,56,0.00,,---,-99.99,VWS V14.01,2015-07-02 07:59:00,
2015-07-02 03:04:00,77.5,60.4,30.08,SSW,209,4.9,4.9,56,0.00,,---,-99.99,VWS V14.01,2015-07-02 08:04:00,
2015-07-02 03:09:00,77.5,60.4,30.08,SW,230,3.1,3.1,56,0.00,,---,-99.99,VWS V14.01,2015-07-02 08:09:00,
2015-07-02 03:14:00,77.4,60.2,30.08,SW,225,0.0,2.7,56,0.00,,---,-99.99,VWS V14.01,2015-07-02 08:14:00,
2015-07-02 03:19:00,77.4,61.0,30.08,SW,225,0.0,0.0,57,0.00,,---,-99.99,VWS V14.01,2015-07-02 08:19:00,
2015-07-02 03:24:00,77.0,60.6,30.08,SW,230,0.0,0.0,57,0.00,,---,-99.99,VWS V14.01,2015-07-02 08:24:00,
2015-07-02 03:29:00,76.6,61.0,30.08,SW,230,0.0,0.0,58,0.00,,---,-99.99,VWS V14.01,2015-07-02 08:29:00,
2015-07-02 03:34:00,76.5,60.8,30.08,SW,230,0.0,0.0,58,0.00,,---,-99.99,VWS V14.01,2015-07-02 08:34:00,
2015-07-02 03:39:00,76.3,61.4,30.08,SW,230,0.0,0.0,60,0.00,,---,-99.99,VWS V14.01,2015-07-02 08:39:00,
2015-07-02 03:44:00,76.1,61.2,30.08,SW,230,0.0,0.0,60,0.00,,---,-99.99,VWS V14.01,2015-07-02 08:44:00,
2015-07-02 03:49:00,75.9,61.0,30.08,SW,230,0.0,0.0,60,0.00,,---,-99.99,VWS V14.01,2015-07-02 08:49:00,
2015-07-02 03:54:00,75.7,61.6,30.08,SW,230,0.0,0.0,62,0.00,,---,-99.99,VWS V14.01,2015-07-02 08:54:00,
2015-07-02 03:59:00,75.7,61.6,30.08,SW,230,0.0,3.6,62,0.00,,---,-99.99,VWS V14.01,2015-07-02 08:59:00,
2015-07-02 04:04:00,75.6,61.4,30.08,SW,230,0.0,0.0,62,0.00,,---,-99.99,VWS V14.01,2015-07-02 09:04:00,
2015-07-02 04:09:00,75.4,61.9,30.08,SW,230,0.0,0.0,63,0.00,,---,-99.99,VWS V14.01,2015-07-02 09:09:00,
2015-07-02 04:14:00,75.2,61.8,30.08,SW,230,0.0,0.0,63,0.00,,---,-99.99,VWS V14.01,2015-07-02 09:14:00,
2015-07-02 04:19:00,75.2,61.8,30.08,SW,230,0.0,0.0,63,0.00,,---,-99.99,VWS V14.01,2015-07-02 09:19:00,
2015-07-02 04:24:00,75.0,61.6,30.08,SW,230,0.0,0.0,63,0.00,,---,-99.99,VWS V14.01,2015-07-02 09:24:00,
2015-07-02 04:29:00,75.0,62.2,30.08,SW,230,0.0,0.0,64,0.00,,---,-99.99,VWS V14.01,2015-07-02 09:29:00,
2015-07-02 04:34:00,75.0,62.2,30.08,SW,230,3.1,3.6,64,0.00,,---,-99.99,VWS V14.01,2015-07-02 09:34:00,
2015-07-02 04:39:00,74.8,62.1,30.08,SW,236,3.1,4.0,64,0.00,,---,-99.99,VWS V14.01,2015-07-02 09:39:00,
2015-07-02 04:44:00,74.8,62.1,30.08,WSW,246,2.7,5.4,64,0.00,,---,-99.99,VWS V14.01,2015-07-02 09:44:00,
2015-07-02 04:49:00,74.7,62.6,30.08,WSW,238,0.0,3.1,66,0.00,,---,-99.99,VWS V14.01,2015-07-02 09:49:00,
2015-07-02 04:54:00,74.7,62.6,30.08,SW,230,5.4,5.4,66,0.00,,---,-99.99,VWS V14.01,2015-07-02 09:54:00,
2015-07-02 04:59:00,74.8,62.7,30.08,SW,232,2.7,5.8,66,0.00,,---,-99.99,VWS V14.01,2015-07-02 09:59:00,
2015-07-02 05:04:00,75.2,62.4,30.08,SW,228,4.0,4.0,64,0.00,,---,-99.99,VWS V14.01,2015-07-02 10:04:00,
2015-07-02 05:09:00,75.4,61.9,30.08,SW,236,4.0,5.8,63,0.00,,---,-99.99,VWS V14.01,2015-07-02 10:09:00,
2015-07-02 05:14:00,75.6,62.1,30.08,SW,219,5.8,6.3,63,0.00,,---,-99.99,VWS V14.01,2015-07-02 10:14:00,
2015-07-02 05:19:00,75.7,62.3,30.08,SW,217,6.3,6.3,63,0.00,,---,-99.99,VWS V14.01,2015-07-02 10:19:00,
2015-07-02 05:24:00,75.6,62.1,30.08,SW,230,3.6,4.9,63,0.00,,---,-99.99,VWS V14.01,2015-07-02 10:24:00,
2015-07-02 05:29:00,75.6,62.1,30.08,WSW,238,0.0,3.6,63,0.00,,---,-99.99,VWS V14.01,2015-07-02 10:29:00,
2015-07-02 05:34:00,75.6,62.1,30.08,WSW,246,4.9,4.9,63,0.00,,---,-99.99,VWS V14.01,2015-07-02 10:34:00,
2015-07-02 05:38:00,75.6,62.1,30.08,WSW,249,0.0,4.0,63,0.00,,---,-99.99,VWS V14.01,2015-07-02 10:38:00,
2015-07-02 05:43:00,75.6,62.1,30.08,SW,226,5.4,5.4,63,0.00,,---,-99.99,VWS V14.01,2015-07-02 10:43:00,
2015-07-02 05:48:00,75.6,62.1,30.08,WSW,248,3.6,5.8,63,0.00,,---,-99.99,VWS V14.01,2015-07-02 10:48:00,
2015-07-02 05:53:00,75.6,62.1,30.08,WSW,238,4.9,6.3,63,0.00,,---,-99.99,VWS V14.01,2015-07-02 10:53:00,
2015-07-02 05:58:00,75.6,62.8,30.08,WSW,238,5.4,7.2,64,0.00,,---,-99.99,VWS V14.01,2015-07-02 10:58:00,
2015-07-02 06:03:00,75.6,62.8,30.08,WSW,241,2.2,5.8,64,0.00,,---,-99.99,VWS V14.01,2015-07-02 11:03:00,
2015-07-02 06:13:00,75.7,62.9,30.08,SW,226,3.1,5.8,64,0.00,,---,-99.99,VWS V14.01,2015-07-02 11:13:00,
2015-07-02 06:18:00,75.7,62.9,30.08,SW,231,8.1,8.1,64,0.00,,---,-99.99,VWS V14.01,2015-07-02 11:18:00,
2015-07-02 06:23:00,75.6,62.8,30.08,WSW,257,5.8,8.1,64,0.00,,---,-99.99,VWS V14.01,2015-07-02 11:23:00,
2015-07-02 06:28:00,75.4,63.2,30.08,WSW,237,7.6,8.1,66,0.00,,---,-99.99,VWS V14.01,2015-07-02 11:28:00,
2015-07-02 06:33:00,75.2,63.1,30.08,SW,230,5.8,7.2,66,0.00,,---,-99.99,VWS V14.01,2015-07-02 11:33:00,
2015-07-02 06:38:00,75.2,63.1,30.08,SW,236,8.3,12.3,66,0.00,,---,-99.99,VWS V14.01,2015-07-02 11:38:00,
2015-07-02 06:43:00,75.0,63.5,30.08,SSW,210,8.7,10.5,68,0.00,,---,-99.99,VWS V14.01,2015-07-02 11:43:00,
2015-07-02 06:48:00,75.0,63.5,30.08,SW,233,8.3,8.3,68,0.00,,---,-99.99,VWS V14.01,2015-07-02 11:48:00,
2015-07-02 06:53:00,75.0,64.2,30.08,SW,226,10.1,10.1,69,0.00,,---,-99.99,VWS V14.01,2015-07-02 11:53:00,
2015-07-02 06:58:00,75.0,64.2,30.08,South,182,10.5,10.5,69,0.00,,---,-99.99,VWS V14.01,2015-07-02 11:58:00,
2015-07-02 07:03:00,75.2,63.7,30.08,WSW,246,10.1,10.1,68,0.00,,---,-99.99,VWS V14.01,2015-07-02 12:03:00,
2015-07-02 07:08:00,75.4,63.2,30.08,SSW,211,4.9,8.1,66,0.00,,---,-99.99,VWS V14.01,2015-07-02 12:08:00,
2015-07-02 07:13:00,75.6,63.4,30.08,SSW,208,8.1,8.1,66,0.00,,---,-99.99,VWS V14.01,2015-07-02 12:13:00,
2015-07-02 07:18:00,75.9,63.1,30.08,SW,235,3.1,6.3,64,0.00,,---,-99.99,VWS V14.01,2015-07-02 12:18:00,
2015-07-02 07:23:00,76.1,63.3,30.08,SSW,206,8.1,8.1,64,0.00,,---,-99.99,VWS V14.01,2015-07-02 12:23:00,
2015-07-02 07:28:00,76.3,63.4,30.08,South,170,8.7,8.7,64,0.00,,---,-99.99,VWS V14.01,2015-07-02 12:28:00,
2015-07-02 07:33:00,76.5,63.6,30.08,SW,226,5.8,8.3,64,0.00,,---,-99.99,VWS V14.01,2015-07-02 12:33:00,
2015-07-02 07:38:00,76.8,64.0,30.08,SSW,195,6.3,8.7,64,0.00,,---,-99.99,VWS V14.01,2015-07-02 12:38:00,
2015-07-02 07:43:00,77.2,63.6,30.08,SSW,200,5.8,8.3,63,0.00,,---,-99.99,VWS V14.01,2015-07-02 12:43:00,
2015-07-02 07:48:00,77.7,64.1,30.08,SSW,194,10.5,10.5,63,0.00,,---,-99.99,VWS V14.01,2015-07-02 12:48:00,
2015-07-02 07:53:00,78.3,64.0,30.08,WSW,255,8.7,12.8,62,0.00,,---,-99.99,VWS V14.01,2015-07-02 12:53:00,
2015-07-02 07:58:00,78.6,64.3,30.08,SW,223,5.8,10.1,62,0.00,,---,-99.99,VWS V14.01,2015-07-02 12:58:00,
2015-07-02 08:03:00,78.8,63.8,30.08,SSW,195,3.1,5.8,60,0.00,,---,-99.99,VWS V14.01,2015-07-02 13:03:00,
2015-07-02 08:08:00,79.0,63.9,30.08,SSW,206,5.8,5.8,60,0.00,,---,-99.99,VWS V14.01,2015-07-02 13:08:00,
2015-07-02 08:13:00,79.3,63.5,30.08,SW,236,5.8,10.5,58,0.00,,---,-99.99,VWS V14.01,2015-07-02 13:13:00,
2015-07-02 08:18:00,79.7,63.1,30.08,SSW,201,8.1,8.1,57,0.00,,---,-99.99,VWS V14.01,2015-07-02 13:18:00,
2015-07-02 08:23:00,79.9,62.5,30.08,SW,216,10.5,10.5,56,0.00,,---,-99.99,VWS V14.01,2015-07-02 13:23:00,
2015-07-02 08:28:00,79.9,62.5,30.08,SW,224,9.6,9.6,56,0.00,,---,-99.99,VWS V14.01,2015-07-02 13:28:00,
2015-07-02 08:33:00,79.9,62.5,30.08,South,190,8.1,8.1,56,0.00,,---,-99.99,VWS V14.01,2015-07-02 13:33:00,
2015-07-02 08:38:00,79.9,62.5,30.08,WSW,239,6.3,8.7,56,0.00,,---,-99.99,VWS V14.01,2015-07-02 13:38:00,
2015-07-02 08:43:00,79.9,62.5,30.08,SW,233,5.8,5.8,56,0.00,,---,-99.99,VWS V14.01,2015-07-02 13:43:00,
2015-07-02 08:48:00,79.7,62.4,30.08,WSW,250,11.0,11.0,56,0.00,,---,-99.99,VWS V14.01,2015-07-02 13:48:00,
2015-07-02 08:53:00,79.7,62.4,30.08,SW,230,15.4,15.4,56,0.00,,---,-99.99,VWS V14.01,2015-07-02 13:53:00,
2015-07-02 08:58:00,79.9,63.3,30.08,SW,231,7.6,8.1,57,0.00,,---,-99.99,VWS V14.01,2015-07-02 13:58:00,
2015-07-02 09:03:00,79.9,63.3,30.08,WSW,243,8.7,8.7,57,0.00,,---,-99.99,VWS V14.01,2015-07-02 14:03:00,
2015-07-02 09:08:00,79.9,63.3,30.08,SW,218,8.3,8.3,57,0.00,,---,-99.99,VWS V14.01,2015-07-02 14:08:00,
2015-07-02 09:13:00,80.2,62.9,30.08,SW,234,5.8,11.0,56,0.00,,---,-99.99,VWS V14.01,2015-07-02 14:13:00,
2015-07-02 09:18:00,80.6,62.4,30.08,SSW,212,11.4,14.5,54,0.00,,---,-99.99,VWS V14.01,2015-07-02 14:18:00,
2015-07-02 09:23:00,81.1,62.1,30.08,SW,214,11.0,11.0,52,0.00,,---,-99.99,VWS V14.01,2015-07-02 14:23:00,
2015-07-02 09:28:00,81.5,62.5,30.08,SSW,212,11.0,13.2,52,0.00,,---,-99.99,VWS V14.01,2015-07-02 14:28:00,
2015-07-02 09:33:00,81.7,62.6,30.08,SW,228,11.0,11.0,52,0.00,,---,-99.99,VWS V14.01,2015-07-02 14:33:00,
2015-07-02 09:38:00,81.5,62.5,30.08,South,183,13.2,17.9,52,0.00,,---,-99.99,VWS V14.01,2015-07-02 14:38:00,
2015-07-02 09:43:00,81.5,62.5,30.08,SW,228,8.1,15.4,52,0.00,,---,-99.99,VWS V14.01,2015-07-02 14:43:00,
2015-07-02 09:48:00,81.7,62.6,30.08,SW,225,5.8,5.8,52,0.00,,---,-99.99,VWS V14.01,2015-07-02 14:48:00,
2015-07-02 09:53:00,82.0,62.1,30.08,South,188,5.4,6.3,51,0.00,,---,-99.99,VWS V14.01,2015-07-02 14:53:00,
2015-07-02 09:58:00,82.0,62.1,30.08,SSW,204,15.0,15.4,51,0.00,,---,-99.99,VWS V14.01,2015-07-02 14:58:00,
2015-07-02 10:03:00,82.2,62.3,30.08,SSW,193,8.7,10.5,51,0.00,,---,-99.99,VWS V14.01,2015-07-02 15:03:00,
2015-07-02 10:08:00,82.6,61.8,30.08,SW,219,11.9,12.3,50,0.00,,---,-99.99,VWS V14.01,2015-07-02 15:08:00,
2015-07-02 10:13:00,83.1,61.4,30.08,SW,226,11.0,12.3,48,0.00,,---,-99.99,VWS V14.01,2015-07-02 15:13:00,
2015-07-02 10:18:00,83.3,62.5,30.08,SW,235,8.3,12.8,50,0.00,,---,-99.99,VWS V14.01,2015-07-02 15:18:00,
2015-07-02 10:23:00,83.8,62.1,30.08,SW,222,14.1,14.1,48,0.00,,---,-99.99,VWS V14.01,2015-07-02 15:23:00,
2015-07-02 10:28:00,84.2,61.5,30.08,SSW,202,16.3,16.3,46,0.00,,---,-99.99,VWS V14.01,2015-07-02 15:28:00,
2015-07-02 10:33:00,84.6,61.8,30.08,SSW,203,12.8,17.0,46,0.00,,---,-99.99,VWS V14.01,2015-07-02 15:33:00,
2015-07-02 10:38:00,84.4,60.7,30.08,SW,230,9.6,18.3,45,0.00,,---,-99.99,VWS V14.01,2015-07-02 15:38:00,
2015-07-02 10:43:00,84.7,62.9,30.08,SW,217,4.0,8.3,48,0.00,,---,-99.99,VWS V14.01,2015-07-02 15:43:00,
2015-07-02 10:48:00,85.5,62.7,30.08,SSE,154,10.5,10.5,46,0.00,,---,-99.99,VWS V14.01,2015-07-02 15:48:00,
2015-07-02 10:53:00,86.0,62.2,30.08,WSW,250,8.1,13.2,45,0.00,,---,-99.99,VWS V14.01,2015-07-02 15:53:00,
2015-07-02 10:57:00,86.0,61.2,30.08,SW,216,8.3,12.3,44,0.00,,---,-99.99,VWS V14.01,2015-07-02 15:57:00,
2015-07-02 11:02:00,86.2,61.4,30.08,WSW,248,12.8,13.2,44,0.00,,---,-99.99,VWS V14.01,2015-07-02 16:02:00,
2015-07-02 11:07:00,86.4,61.6,30.08,SSE,164,8.1,13.2,44,0.00,,---,-99.99,VWS V14.01,2015-07-02 16:07:00,
2015-07-02 11:12:00,86.4,61.6,30.08,WSW,253,8.3,15.4,44,0.00,,---,-99.99,VWS V14.01,2015-07-02 16:12:00,
2015-07-02 11:17:00,86.4,61.6,30.08,WSW,245,11.0,14.1,44,0.00,,---,-99.99,VWS V14.01,2015-07-02 16:17:00,
2015-07-02 11:22:00,86.5,61.7,30.08,SW,236,10.5,12.3,44,0.00,,---,-99.99,VWS V14.01,2015-07-02 16:22:00,
2015-07-02 11:27:00,86.9,62.1,30.08,SW,235,8.3,11.9,44,0.00,,---,-99.99,VWS V14.01,2015-07-02 16:27:00,
2015-07-02 11:32:00,87.4,61.5,30.08,SSW,200,14.1,14.1,42,0.00,,---,-99.99,VWS V14.01,2015-07-02 16:32:00,
2015-07-02 11:37:00,87.6,62.7,30.08,SSW,210,11.0,14.5,44,0.00,,---,-99.99,VWS V14.01,2015-07-02 16:37:00,
2015-07-02 11:42:00,88.0,62.0,30.08,West,261,8.7,11.0,42,0.00,,---,-99.99,VWS V14.01,2015-07-02 16:42:00,
2015-07-02 11:47:00,88.3,62.4,30.08,WSW,257,8.7,10.5,42,0.00,,---,-99.99,VWS V14.01,2015-07-02 16:47:00,
2015-07-02 11:52:00,88.5,62.5,30.08,West,261,5.8,8.3,42,0.00,,---,-99.99,VWS V14.01,2015-07-02 16:52:00,
2015-07-02 11:57:00,88.9,62.8,30.08,WSW,241,11.0,13.2,42,0.00,,---,-99.99,VWS V14.01,2015-07-02 16:57:00,
2015-07-02 12:02:00,88.9,61.8,30.08,WSW,239,8.3,12.3,40,0.00,,---,-99.99,VWS V14.01,2015-07-02 17:02:00,
2015-07-02 12:07:00,88.9,62.8,30.08,WSW,243,11.9,11.9,42,0.00,,---,-99.99,VWS V14.01,2015-07-02 17:07:00,
2015-07-02 12:12:00,89.1,63.0,30.08,SW,218,8.7,8.7,42,0.00,,---,-99.99,VWS V14.01,2015-07-02 17:12:00,
2015-07-02 12:17:00,89.2,61.1,30.08,SW,222,10.1,10.1,39,0.00,,---,-99.99,VWS V14.01,2015-07-02 17:17:00,
2015-07-02 12:22:00,89.4,61.2,30.08,WSW,250,10.1,11.9,39,0.00,,---,-99.99,VWS V14.01,2015-07-02 17:22:00,
2015-07-02 12:27:00,89.4,60.1,30.08,SSW,200,10.1,10.1,38,0.00,,---,-99.99,VWS V14.01,2015-07-02 17:27:00,
2015-07-02 12:32:00,89.4,60.1,30.08,WSW,257,8.3,12.3,38,0.00,,---,-99.99,VWS V14.01,2015-07-02 17:32:00,
2015-07-02 12:37:00,89.6,59.1,30.08,WSW,243,8.3,11.0,36,0.00,,---,-99.99,VWS V14.01,2015-07-02 17:37:00,
2015-07-02 12:42:00,90.0,59.5,30.08,SW,229,8.7,8.7,36,0.00,,---,-99.99,VWS V14.01,2015-07-02 17:42:00,
2015-07-02 12:47:00,90.1,59.6,30.08,West,267,8.1,10.1,36,0.00,,---,-99.99,VWS V14.01,2015-07-02 17:47:00,
2015-07-02 12:52:00,90.1,60.8,30.08,SW,226,4.9,8.3,38,0.00,,---,-99.99,VWS V14.01,2015-07-02 17:52:00,
2015-07-02 12:57:00,90.3,59.8,30.08,WSW,239,5.4,10.5,36,0.00,,---,-99.99,VWS V14.01,2015-07-02 17:57:00,
2015-07-02 13:02:00,90.9,60.2,30.08,WSW,240,8.1,8.1,36,0.00,,---,-99.99,VWS V14.01,2015-07-02 18:02:00,
2015-07-02 13:07:00,91.4,59.5,30.08,SW,232,6.3,10.5,34,0.00,,---,-99.99,VWS V14.01,2015-07-02 18:07:00,
2015-07-02 13:12:00,91.4,58.3,30.08,SW,228,8.3,8.3,33,0.00,,---,-99.99,VWS V14.01,2015-07-02 18:12:00,
2015-07-02 13:17:00,91.4,61.9,30.08,WSW,250,5.8,5.8,38,0.00,,---,-99.99,VWS V14.01,2015-07-02 18:17:00,
2015-07-02 13:22:00,91.2,59.4,30.08,West,268,10.5,10.5,34,0.00,,---,-99.99,VWS V14.01,2015-07-02 18:22:00,
2015-07-02 13:27:00,91.0,61.5,30.08,WSW,237,8.7,11.0,38,0.00,,---,-99.99,VWS V14.01,2015-07-02 18:27:00,
2015-07-02 13:32:00,91.0,60.4,30.08,SSW,211,10.1,10.1,36,0.00,,---,-99.99,VWS V14.01,2015-07-02 18:32:00,
2015-07-02 13:37:00,91.4,61.9,30.08,SW,218,7.6,8.3,38,0.00,,---,-99.99,VWS V14.01,2015-07-02 18:37:00,